Torna al catalogo

STARLINK-5458

AttivoComunicazioniVLEO
NORAD 54764·PAYLOAD·🇺🇸 United States

Lanciato Dec 17, 2022 da Cape Canaveral Space Force Station

Loading…

Prossimi Passaggi (prossime 24 ore)

TLE

AggiornatoSource: CelesTrak SupGP

Epoca: Sep 15, 2026, 02:05 UTC

1 54764C 22175G   26258.08729167 -.00011110  00000+0 -32823-3 0  2580
2 54764  53.1574 263.0303 0001347  91.8040  46.9249 15.34398866    15

Traccia STARLINK-5458 in tempo reale con AllMySat

Download on the App Store